Regional Weather Roundup
Issued by NWS

Home | Current Version | Previous Version | Text Only | Print | Product List | Glossary On
Versions: 1 2 3 4 5 6 7 8 9 10 11 12 13 14 15 16 17 18 19 20 21 22 23 24 25 26 27 28 29 30 31 32 33 34 35 36 37 38 39 40 41 42 43 44 45 46 47 48 49 50
000
ASUS45 KPSR 260110
RWRAZ

ARIZONA REGIONAL HOURLY WEATHER ROUNDUP
NATIONAL WEATHER SERVICE PHOENIX AZ
600 PM MST SUN JAN 25 2015

NOTE: FAIR INDICATES FEW OR NO CLOUDS BELOW 12,000 FEET WITH NO
SIGNIFICANT WEATHER AND/OR OBSTRUCTIONS TO VISIBILITY.

AZZ001>003-036-260200-
NORTHWEST ARIZONA

CITY           SKY/WX    TMP DP  RH WIND       PRES   REMARKS
BULLHEAD CITY  PTCLDY    73  32  21 N22G29    30.03S
KINGMAN        PTCLDY    56  26  31 NE7       30.15S
$$

AZZ004>008-015-016-018-260200-
NORTH CENTRAL ARIZONA

CITY           SKY/WX    TMP DP  RH WIND       PRES   REMARKS
GRAND CANYON   CLEAR     46  21  37 E7        30.32S
PRESCOTT       PTCLDY    57  22  25 SE8       30.20R
FLAGSTAFF      PTCLDY    45  21  38 E6        30.32S
PAYSON         PTCLDY    55  25  30 CALM      30.22R
$$

AZZ009>014-017-260200-
NORTHEAST ARIZONA

CITY           SKY/WX    TMP DP  RH WIND       PRES   REMARKS
WINSLOW        CLEAR     46  26  45 NW3       30.28R
SAINT JOHNS    CLEAR     42  20  41 W5        30.26S
WINDOW ROCK    CLEAR     45  23  42 E9        30.29R
SHOW LOW       CLEAR     39  19  45 N6        30.31R WCI  35
$$

AZZ023-260200-
GREATER PHOENIX AREA

CITY           SKY/WX    TMP DP  RH WIND       PRES   REMARKS
PHOENIX        MOCLDY    72  23  16 CALM      30.03R
BUCKEYE          N/A     64  32  29 NW3       30.04S
GLENDALE       MOCLDY    72  27  18 CALM      30.05
LUKE AFB       NOT AVBL
DEER VALLEY    MOCLDY    69  24  18 SW3       30.04R
SCOTTSDALE     MOCLDY    68  26  20 SE3       30.06R
MESA-FALCON    MOCLDY    68  25  19 VRB5      30.04R
MESA-GATEWAY   PTCLDY    70  27  19 CALM      30.06R
CHANDLER       MOCLDY    68  30  24 VRB5      30.04R
$$

AZZ027-028-260200-
SOUTHWEST MARICOPA COUNTY AND PINAL COUNTY

CITY           SKY/WX    TMP DP  RH WIND       PRES   REMARKS
CASA GRANDE    MOCLDY    64  27  24 CALM      30.05S
GILA BEND      FAIR      67  21  17 NE6       30.01S
$$

AZZ503-504-507>509-260200-
SOUTHEAST ARIZONA

CITY           SKY/WX    TMP DP  RH WIND       PRES   REMARKS
TUCSON         MOCLDY    68  14  12 E3        30.08S
DAVIS-MONTHAN  CLOUDY    65  21  18 CALM      30.07R
RYAN FIELD       N/A     66  18  15 SE7       30.07S
NOGALES        MOCLDY    62  23  22 E5        30.11R
SIERRA VISTA   MOCLDY    59  13  16 CALM      30.16R
DOUGLAS        MOCLDY    60  19  20 E12       30.16R
SAFFORD        PTCLDY    57  20  23 SE3       30.16R
$$

AZZ020-021-025-026-031-260200-
SOUTHWEST ARIZONA

CITY           SKY/WX    TMP DP  RH WIND       PRES   REMARKS
YUMA           MOCLDY    71  34  25 CALM      30.00R
$$

CAZ031-033-041-043-047-048-061-260200-
SOUTHERN CALIFORNIA

CITY           SKY/WX    TMP DP  RH WIND       PRES   REMARKS
DOWNTOWN L.A.  CLOUDY    78  33  19 CALM      29.95S
L.A. AIRPORT   MOCLDY    69  36  29 W8        29.97R
SAN DIEGO      CLOUDY    73  25  16 NW3       29.99R
BURBANK        CLOUDY    77  29  17 N5        29.99R
ONTARIO        CLOUDY    78  26  14 NE12G21   29.98F
RIVERSIDE      CLOUDY    76  27  16 CALM      29.99R
PALM SPRINGS   CLOUDY    77  28  16 W8        30.03R
EL CENTRO NAS  MOCLDY    74  29  19 SW5       30.00S
IMPERIAL       MOCLDY    74  32  21 SW5       29.99S
BLYTHE         MOCLDY    70  36  28 S5        30.02S
NEEDLES        MOCLDY    73  29  19 N13       30.03S
$$

NVZ020-UTZ003-260200-
SOUTHERN NEVADA-UTAH

CITY           SKY/WX    TMP DP  RH WIND       PRES   REMARKS
LAS VEGAS      PTCLDY    70  31  23 W3        30.11S
SALT LAKE CITY MOCLDY    41  31  67 NW9       30.41S
$$

NMZ009-TXZ055-260200-
NEW MEXICO-WEST TEXAS

CITY           SKY/WX    TMP DP  RH WIND       PRES   REMARKS
ALBUQUERQUE    PTCLDY    50  21  32 CALM      30.25R
EL PASO        MOCLDY    55  28  35 S6        30.22R
$$


........................KEY........................
SKY/WX - SKY CONDITION/WEATHER
TMP    - TEMPERATURE IN FAHRENHEIT
DP     - DEW POINT IN FAHRENHEIT
RH     - RELATIVE HUMIDITY IN PERCENT
WIND   - DIRECTION AND SPEED IN MILES PER HOUR (MPH)
VRB    - VARIABLE WIND DIRECTION
PRES   - MEAN SEA LEVEL PRESSURE IN INCHES OF MERCURY
         F - FALLING PRESSURE   R - RISING PRESSURE
         S - STEADY PRESSURE
VSB    - VISIBILITY IN MILES
HX     - HEAT INDEX IN FAHRENHEIT
WCI    - WIND CHILL INDEX IN FAHRENHEIT
TC     - TEMPERATURE IN CELSIUS WHICH IS ALSO KNOWN AS
         TEMPERATURE IN CENTIGRADE
AFB    - AIR FORCE BASE
         LUKE AFB IS LUKE AIR FORCE BASE
         DAVIS-MONTHAN IS DAVIS-MONTHAN AIR FORCE BASE
NAS    - NAVAL AIR STATION
         EL CENTRO NAS IS EL CENTRO NAVAL AIR STATION
N/A    - NOT AVAILABLE


USA.gov is the U.S. government's official web portal to all federal, state and local government web resources and services.